Location: Seattle
(47.6064°N, 122.3308°W)
Time: 00:35:09
(UTC-08:00)

Tiros 1 - Pass Details

Date: 30 November 2020
Orbit: 630 x 663 km, 48.4° (Epoch: 28 January)

Event Time Altitude Azimuth Distance (km) Brightness Sun altitude
Rises 14:01:42 0° 206° (SSW) 2,981 12.5 15.2°
Reaches altitude 10° 14:04:26 10° 192° (SSW) 2,073 11.5 15.0°
Maximum altitude 14:08:09 23° 141° (SE) 1,418 9.3 14.7°
Drops below altitude 10° 14:11:51 10° 90° (E) 2,079 9.5 14.4°
Sets 14:14:36 0° 76° (ENE) 2,991 10.1 14.1°
